When you browse on this site, cookies collect data to enhance your experience and personalize the content and advertising you see.
Visit our Privacy Policy to learn more. By continuing to use the site, you agree to this use of cookies and data.
  • In Portugal
  • List of Countries
  • For 7 days
  • Water Temperature
  • Satellite Maps
  • Weather Map
  • Weather Widgets
  • user-avatar
    Login

    Hourly Weather Brussels

    Today, 17 February, Sunday

    Time Temperature Precipitation Wind Pressure Humidity
    00:00 +5°C° 0 mm 3 mps 765 mmHg 83%
    01:00 +5°C° 0 mm 3 mps 764 mmHg 83%
    02:00 +5°C° 0 mm 3 mps 764 mmHg 83%
    03:00 +5°C° 0 mm 3 mps 764 mmHg 83%
    04:00 +5°C° 0 mm 3 mps 764 mmHg 84%
    05:00 +5°C° 0 mm 3 mps 763 mmHg 85%
    06:00 +5°C° 0 mm 3 mps 763 mmHg 86%
    07:00 +6°C° 0 mm 4 mps 763 mmHg 80%
    08:00 +6°C° 0 mm 4 mps 763 mmHg 74%
    09:00 +7°C° 0 mm 5 mps 763 mmHg 68%
    10:00 +9°C° 0 mm 5 mps 762 mmHg 63%
    11:00 +10°C° 0 mm 5 mps 762 mmHg 58%
    12:00 +13°C° 0 mm 5 mps 762 mmHg 53%
    13:00 +13°C° 0 mm 5 mps 762 mmHg 52%
    14:00 +13°C° 0 mm 5 mps 761 mmHg 52%
    15:00 +14°C° 0 mm 5 mps 761 mmHg 52%
    16:00 +12°C° 0 mm 4 mps 761 mmHg 57%
    17:00 +11°C° 0 mm 4 mps 761 mmHg 62%
    18:00 +8°C° 0 mm 4 mps 761 mmHg 67%
    19:00 +8°C° 0 mm 4 mps 761 mmHg 67%
    20:00 +7°C° 0 mm 4 mps 761 mmHg 68%
    21:00 +7°C° 0 mm 4 mps 761 mmHg 68%
    22:00 +7°C° 0 mm 4 mps 761 mmHg 69%
    23:00 +6°C° 0 mm 4 mps 761 mmHg 70%

    Tomorrow, 18 February, Monday

    Time Temperature Precipitation Wind Pressure Humidity
    00:00 +6°C° 0 mm 4 mps 761 mmHg 71%
    01:00 +6°C° 0 mm 4 mps 761 mmHg 72%
    02:00 +5°C° 0 mm 4 mps 761 mmHg 73%
    03:00 +5°C° 0 mm 4 mps 760 mmHg 74%
    04:00 +5°C° 0 mm 4 mps 760 mmHg 75%
    05:00 +5°C° 0 mm 3 mps 760 mmHg 77%
    06:00 +4°C° 0 mm 3 mps 760 mmHg 78%
    07:00 +5°C° 0 mm 4 mps 760 mmHg 76%
    08:00 +6°C° 0 mm 4 mps 760 mmHg 73%
    09:00 +7°C° 0 mm 4 mps 760 mmHg 71%
    10:00 +8°C° 0 mm 5 mps 760 mmHg 68%
    11:00 +10°C° 0 mm 5 mps 760 mmHg 66%
    12:00 +12°C° 0 mm 5 mps 760 mmHg 63%
    13:00 +12°C° 0 mm 5 mps 759 mmHg 62%
    14:00 +13°C° 0 mm 5 mps 759 mmHg 61%
    15:00 +13°C° 0 mm 5 mps 759 mmHg 60%
    16:00 +12°C° 0 mm 5 mps 759 mmHg 66%
    17:00 +10°C° 0 mm 4 mps 759 mmHg 72%
    18:00 +8°C° 0 mm 4 mps 759 mmHg 77%
    19:00 +8°C° 0 mm 4 mps 759 mmHg 78%
    20:00 +7°C° 0 mm 4 mps 759 mmHg 79%
    21:00 +7°C° 0 mm 4 mps 759 mmHg 81%
    22:00 +7°C° 0.2 mm 4 mps 759 mmHg 83%
    23:00 +7°C° 0.2 mm 4 mps 759 mmHg 85%

    Day after tomorrow, 19 February, Tuesday

    Time Temperature Precipitation Wind Pressure Humidity
    00:00 +7°C° 0.2 mm 4 mps 759 mmHg 88%
    01:00 +8°C° 0.6 mm 3 mps 759 mmHg 89%
    02:00 +8°C° 0.6 mm 3 mps 759 mmHg 91%
    03:00 +7°C° 0.6 mm 3 mps 759 mmHg 93%
    04:00 +6°C° 0.1 mm 4 mps 759 mmHg 92%
    05:00 +6°C° 0.1 mm 4 mps 760 mmHg 91%
    06:00 +6°C° 0.1 mm 4 mps 760 mmHg 90%
    07:00 +6°C° 0 mm 5 mps 760 mmHg 86%
    08:00 +6°C° 0 mm 5 mps 761 mmHg 82%
    09:00 +6°C° 0 mm 5 mps 761 mmHg 78%
    10:00 +7°C° 0 mm 5 mps 761 mmHg 74%
    11:00 +8°C° 0 mm 5 mps 762 mmHg 69%
    12:00 +9°C° 0 mm 5 mps 762 mmHg 65%
    13:00 +9°C° 0 mm 5 mps 762 mmHg 64%
    14:00 +10°C° 0 mm 5 mps 762 mmHg 62%
    15:00 +10°C° 0 mm 5 mps 762 mmHg 61%
    16:00 +10°C° 0.1 mm 4 mps 762 mmHg 65%
    17:00 +9°C° 0.1 mm 3 mps 762 mmHg 70%
    18:00 +8°C° 0.1 mm 2 mps 763 mmHg 75%
    19:00 +7°C° 0 mm 3 mps 763 mmHg 77%
    20:00 +7°C° 0 mm 3 mps 763 mmHg 79%
    21:00 +7°C° 0 mm 3 mps 763 mmHg 81%
    22:00 +7°C° 0 mm 3 mps 763 mmHg 82%
    23:00 +7°C° 0 mm 3 mps 764 mmHg 83%

    20 February, Wednesday

    Time Temperature Precipitation Wind Pressure Humidity
    00:00 +7°C° 0 mm 3 mps 764 mmHg 84%
    01:00 +5°C° 0 mm 3 mps 764 mmHg 84%
    02:00 +5°C° 0 mm 3 mps 764 mmHg 84%
    03:00 +5°C° 0 mm 3 mps 763 mmHg 84%
    04:00 +5°C° 0 mm 3 mps 764 mmHg 83%
    05:00 +5°C° 0 mm 3 mps 764 mmHg 82%
    06:00 +4°C° 0 mm 3 mps 764 mmHg 81%
    07:00 +5°C° 0 mm 3 mps 764 mmHg 78%
    08:00 +5°C° 0 mm 4 mps 764 mmHg 75%
    09:00 +6°C° 0 mm 4 mps 764 mmHg 72%
    10:00 +7°C° 0 mm 4 mps 764 mmHg 68%
    11:00 +8°C° 0 mm 4 mps 764 mmHg 63%
    12:00 +10°C° 0 mm 4 mps 765 mmHg 58%
    13:00 +11°C° 0 mm 4 mps 764 mmHg 58%
    14:00 +11°C° 0 mm 4 mps 764 mmHg 58%
    15:00 +11°C° 0 mm 4 mps 764 mmHg 58%
    16:00 +10°C° 0 mm 4 mps 764 mmHg 64%
    17:00 +9°C° 0 mm 3 mps 764 mmHg 71%
    18:00 +8°C° 0 mm 3 mps 764 mmHg 78%
    19:00 +8°C° 0 mm 3 mps 765 mmHg 80%
    20:00 +8°C° 0 mm 3 mps 765 mmHg 82%
    21:00 +7°C° 0 mm 3 mps 765 mmHg 85%
    22:00 +7°C° 0 mm 3 mps 765 mmHg 86%
    23:00 +7°C° 0 mm 3 mps 765 mmHg 88%

    21 February, Thursday

    Time Temperature Precipitation Wind Pressure Humidity
    00:00 +7°C° 0 mm 3 mps 765 mmHg 89%
    01:00 +7°C° 0 mm 3 mps 765 mmHg 90%
    02:00 +7°C° 0 mm 3 mps 766 mmHg 91%
    03:00 +5°C° 0 mm 3 mps 766 mmHg 91%
    04:00 +5°C° 0 mm 3 mps 766 mmHg 92%
    05:00 +5°C° 0 mm 3 mps 766 mmHg 93%
    06:00 +5°C° 0 mm 3 mps 766 mmHg 93%
    07:00 +5°C° 0 mm 3 mps 767 mmHg 90%
    08:00 +7°C° 0 mm 3 mps 767 mmHg 88%
    09:00 +8°C° 0 mm 3 mps 767 mmHg 85%
    10:00 +9°C° 0 mm 3 mps 767 mmHg 80%
    11:00 +11°C° 0 mm 3 mps 767 mmHg 75%
    12:00 +12°C° 0 mm 3 mps 768 mmHg 69%
    13:00 +12°C° 0 mm 3 mps 767 mmHg 69%
    14:00 +13°C° 0 mm 3 mps 767 mmHg 68%
    15:00 +13°C° 0 mm 3 mps 767 mmHg 67%
    16:00 +13°C° 0 mm 2 mps 768 mmHg 73%
    17:00 +10°C° 0 mm 2 mps 768 mmHg 79%
    18:00 +10°C° 0 mm 1 mps 768 mmHg 84%
    19:00 +10°C° 0 mm 1 mps 769 mmHg 86%
    20:00 +9°C° 0 mm 1 mps 769 mmHg 87%
    21:00 +9°C° 0 mm 1 mps 769 mmHg 88%
    22:00 +8°C° 0 mm 1 mps 770 mmHg 89%
    23:00 +8°C° 0 mm 1 mps 770 mmHg 90%

    22 February, Friday

    Time Temperature Precipitation Wind Pressure Humidity
    00:00 +8°C° 0 mm 1 mps 770 mmHg 90%
    01:00 +8°C° 0 mm 1 mps 770 mmHg 91%
    02:00 +7°C° 0 mm 1 mps 770 mmHg 91%
    03:00 +7°C° 0 mm 1 mps 770 mmHg 92%
    04:00 +7°C° 0 mm 1 mps 770 mmHg 92%
    05:00 +6°C° 0 mm 1 mps 770 mmHg 92%
    06:00 +6°C° 0 mm 1 mps 770 mmHg 92%
    07:00 +7°C° 0 mm 1 mps 771 mmHg 88%
    08:00 +7°C° 0 mm 0 mps 771 mmHg 85%
    09:00 +8°C° 0 mm 0 mps 772 mmHg 82%
    10:00 +10°C° 0 mm 0 mps 772 mmHg 76%
    11:00 +11°C° 0 mm 0 mps 772 mmHg 71%
    12:00 +13°C° 0 mm 1 mps 772 mmHg 66%
    13:00 +14°C° 0 mm 1 mps 772 mmHg 66%
    14:00 +14°C° 0 mm 2 mps 771 mmHg 66%
    15:00 +15°C° 0 mm 2 mps 771 mmHg 66%
    16:00 +13°C° 0 mm 2 mps 771 mmHg 73%
    17:00 +12°C° 0 mm 2 mps 771 mmHg 79%
    18:00 +10°C° 0 mm 2 mps 772 mmHg 85%
    19:00 +10°C° 0 mm 2 mps 772 mmHg 85%
    20:00 +10°C° 0 mm 3 mps 772 mmHg 85%
    21:00 +9°C° 0 mm 3 mps 772 mmHg 84%
    22:00 +9°C° 0 mm 3 mps 773 mmHg 85%
    23:00 +8°C° 0 mm 3 mps 773 mmHg 86%
    Show more